Location: Eckley Miners' Village
(40.9930°N, 75.8630°W)
Time: 01:00:52
(UTC-04:00)

Vanguard 1 Rocket - Pass Details

Date: 20 March 2026
Orbit: 654 x 4213 km, 34.3° (Epoch: 20 April)

Event Time Altitude Azimuth Distance (km) Brightness Sun altitude
Exits shadow 05:21:54 14° 207° (SSW) 3,404 9.9 -20.3°
Maximum altitude 05:27:19 25° 164° (SSE) 2,147 9.3 -19.3°
Drops below altitude 10° 05:32:06 10° 109° (ESE) 2,538 10.5 -18.5°
Sets 05:34:34 0° 95° (E) 3,253 11.5 -18.0°
